Content
SEND FEEDBACK

Daily
Averages
Monthly
Summary
United Kingdom

LEUCHARS, SCOTLAND


Home > Europe > United Kingdom > Scotland
Elevation: 39 feet     Latitude: 56 23N     Longitude: 002 52W

WEATHER
 
SELECT A DAY
Number of Records: 181,877;   Date Range: 7/1/96 - 10/23/14
 
SHARE

PRINT THIS DATA

[ ← Previous Day ]
WEATHER ALMANAC - AUGUST 21, 2013
[ Next Day → ]
[ °C ]   °F
Weather ElementAverageHighLow
Temperature63.2 °F71.6 °F (2:50 pm)57 °F (3:50 am)
Dewpoint57.6 °F61 °F (9:50 am)55.4 °F (12:50 am)
Humidity81.8 %100 % (5:50 am)56 % (12:50 pm)
Barometer30.04 in30.12 in (12:50 am)30.01 in (10:50 am)
Wind Speed6 mph12.7 mph (11:50 am)
Weather ElementAverage
Visibility9.4 mi
Wind DirectionS (175.3 °)

Weather ElementTotal
Precipitation---
Heating Degree Days0.7 (Base 65)
Growing Degree Days14.3 (Base 50)
Averaged from 32 records on August 21, 2013
WEATHER CONDITIONS BREAKOUT
WIND DIRECTION BREAKOUT
WEATHER BY HOUR - AUGUST 21, 2013
[ °C ]   °F
Local TimeTemperatureDewpointHumidityBarometerVisibilityWind DirectionWind SpeedGust SpeedPrecipitationEventsConditions
12:50 AM57.2 °F55.4 °F94 %30.12 inSSW (200°)4.6 mphClear
1:50 AM57.2 °F55.4 °F94 %30.09 in6.2 miWSW (250°)2.3 mphOvercast
2:50 AM57.2 °F55.4 °F94 %30.09 in6.2 miSE (140°)2.3 mphRainLight Rain
3:50 AM57.0 °F56.0 °F95 %30.07 in9.0 miEast (90°)3.5 mphRainLight Rain
3:50 AM57.2 °F55.4 °F94 %30.06 in6.2 miEast (90°)3.5 mphOvercast
4:50 AM57.2 °F55.4 °F94 %30.06 in6.2 miNNE (30°)2.3 mphRainLight Rain
5:50 AM57.2 °F57.2 °F100 %30.04 in3.7 miNNE (30°)2.3 mphRainLight Rain
6:50 AM57.2 °F57.2 °F100 %30.04 in6.2 miESE (110°)3.5 mphRainLight Rain
6:50 AM57.0 °F57.0 °F98 %30.04 in12.0 miESE (110°)3.5 mphRainLight Rain
7:50 AM59.0 °F57.2 °F94 %30.04 in6.2 miSW (220°)2.3 mphOvercast
8:50 AM60.8 °F59.0 °F94 %30.04 in6.2 miWest (260°)9.2 mphMostly Cloudy
9:29 AM62.6 °F59.0 °F88 %30.04 in6.2 miWSW (250°)10.4 mphMostly Cloudy
9:50 AM66.0 °F61.0 °F78 %30.04 in25.0 miWSW (240°)11.5 mphPartly Cloudy
9:50 AM66.2 °F60.8 °F83 %30.04 in6.2 miWSW (240°)11.5 mphMostly Cloudy
10:50 AM66.2 °F59.0 °F78 %30.01 in6.2 miWest (260°)11.5 mphScattered Clouds
11:50 AM66.2 °F57.2 °F73 %30.01 in6.2 miWSW (250°)12.7 mphScattered Clouds
12:50 PM68.0 °F57.2 °F68 %30.01 in6.2 miSW (230°)11.5 mphScattered Clouds
12:50 PM69.0 °F57.0 °F56 %30.02 in25.0 miSW (230°)11.5 mphPartly Cloudy
1:50 PM68.0 °F57.2 °F68 %30.01 in6.2 miSW (220°)10.4 mphMostly Cloudy
2:50 PM71.6 °F57.2 °F60 %30.01 in6.2 miSW (230°)9.2 mphMostly Cloudy
3:50 PM67.0 °F59.0 °F68 %30.03 in28.0 miENE (60°)2.3 mphMostly Cloudy
3:50 PM66.2 °F59.0 °F78 %30.01 in6.2 miENE (60°)2.3 mphMostly Cloudy
4:50 PM68.0 °F59.0 °F73 %30.01 in6.2 miWNW (300°)9.2 mphMostly Cloudy
5:50 PM69.8 °F55.4 °F60 %30.01 in6.2 miSW (230°)8.1 mphMostly Cloudy
6:50 PM68.0 °F57.2 °F68 %30.04 in6.2 miSW (230°)6.9 mphMostly Cloudy
6:50 PM68.0 °F58.0 °F61 %30.04 in22.0 miSW (230°)6.9 mphMostly Cloudy
7:50 PM66.2 °F57.2 °F73 %30.04 in6.2 miWest (260°)4.6 mphMostly Cloudy
8:50 PM64.4 °F57.2 °F77 %30.04 in6.2 miWSW (250°)3.5 mphMostly Cloudy
9:50 PM63.0 °F58.0 °F80 %30.07 in25.0 miSE (130°)1.2 mphMostly Cloudy
9:50 PM62.6 °F59.0 °F88 %30.06 in6.2 miSE (130°)1.2 mphMostly Cloudy
10:50 PM60.8 °F59.0 °F94 %30.06 in6.2 miNNE (20°)2.3 mphMostly Cloudy
11:50 PM60.8 °F59.0 °F94 %30.06 in6.2 miNNE (30°)3.5 mphOvercast
Hourly data recorded from EGQL, located miles away from Leuchars, Scotland







STORIES FROM OUR PARTNERS